Home > Time Zones > World Clock > Weather > Chad > Sarh > Past weeks

Flag for Chad Weather past 2 weeks in Sarh, Chad

Now
73 °F

Thunderstorms. Passing clouds.


Feels Like: 70 °F
Forecast: 73 / 86 °F
Wind: 2 mph from South

Location: Sarh Airport

Current Time: Sep 15, 2014 at 3:53:49 AM

Latest Report: Sep 15, 2014 at 3:00 AM


Visibility: N/A

Pressure: 29.89 "Hg

Humidity: 94%

Dew point: 72 °F

Location of SarhLocation

Historic Weather in Sarh — Graph

°F

Sarh temperature yesterday

Maximum temperature yesterday: 88 °F (at 1:00 PM)
Minimum temperature yesterday: 72 °F (at 2:00 AM)
Average temperature yesterday: 76 °F

Past Weeks' High & Low Weather Summary

 TemperatureHumidityPressure
High93 °F (Sep 11, 4:00 PM)100% (Aug 31, 11:00 PM)30.07 "Hg (Aug 31, 11:00 PM)
Low70 °F (Aug 31, 4:00 AM)49% (Sep 11, 4:00 PM)29.80 "Hg (Sep 5, 5:00 PM)
Average78 °F83%29.93 "Hg
* Reported Aug 31 2:00 AM — Sep 15 2:00 AM, Sarh, Weather by CustomWeather, © 2014

Note: Actual official high and low records may vary slightly from our data, if they occured in-between our weather recording intervals... More about our weather records

Advertising

Sarh weather history for previous 24 hours

 ConditionsComfort  
Time TempWeatherWind HumidityBarometerVisibility
2:00 AM
Sep 15
73 °FThunderstorms. Passing clouds.2 mph94%29.89 "HgN/A
1:00 AM73 °FThunderstorms. Passing clouds.2 mph94%29.92 "HgN/A
11:00 PM
Sep 14
73 °FPassing clouds.No wind94%29.95 "HgN/A
10:00 PM73 °FPassing clouds.No wind94%29.92 "HgN/A
9:00 PM73 °FThunderstorms. Passing clouds.No wind94%30.07 "HgN/A
8:00 PM73 °FThunderstorms. Passing clouds.No wind100%29.89 "HgN/A
7:00 PM73 °FThunderstorms. Passing clouds.No wind94%29.89 "HgN/A
6:00 PM72 °FThunderstorms. Passing clouds.No wind94%29.89 "HgN/A
5:00 PM72 °FThunderstorms. Scattered clouds.N/A94%29.89 "HgN/A
4:00 PM84 °FThunderstorms. Passing clouds.6 mph66%29.83 "HgN/A
3:00 PM82 °FScattered clouds.9 mph74%29.86 "HgN/A
2:00 PM88 °FScattered clouds.6 mph55%29.89 "HgN/A
1:00 PM88 °FScattered clouds.5 mph59%29.92 "HgN/A
12:00 PM84 °FPassing clouds.2 mph66%29.92 "HgN/A
11:00 AM81 °FPassing clouds.No wind74%29.95 "HgN/A
10:00 AM79 °FPassing clouds.No wind79%29.95 "HgN/A
9:00 AM75 °FScattered clouds.No wind89%29.95 "HgN/A
8:00 AM75 °FScattered clouds.5 mph89%29.95 "HgN/A
7:00 AM73 °FScattered clouds.No wind94%29.98 "HgN/A
6:00 AM72 °FScattered clouds.No wind94%29.95 "HgN/A
5:00 AM72 °FPassing clouds.No wind94%29.95 "HgN/A
4:00 AM72 °FPassing clouds.5 mph94%29.98 "HgN/A
3:00 AM72 °FMild.5 mph94%29.95 "HgN/A
Weather by CustomWeather, © 2014

See weather overviewHow to use our weather pages